TimeCST,TemperatureF,Dew PointF,Humidity,Sea Level PressureIn,VisibilityMPH,Wind Direction,Wind SpeedMPH,Gust SpeedMPH,PrecipitationIn,Events,Conditions,WindDirDegrees,DateUTC
12:15 AM,35.1,18.1,50,30.01,10.0,NW,6.9,-,N/A,,Clear,320,2014-01-16 06:15:00
12:35 AM,32.4,18.0,55,30.02,10.0,WNW,8.1,-,N/A,,Clear,290,2014-01-16 06:35:00
12:55 AM,37.2,18.5,47,30.02,10.0,NW,8.1,-,N/A,,Clear,310,2014-01-16 06:55:00
1:15 AM,35.1,18.3,51,30.02,10.0,WNW,6.9,-,N/A,,Clear,300,2014-01-16 07:15:00
1:35 AM,34.3,18.5,52,30.03,10.0,Calm,Calm,-,N/A,,Clear,0,2014-01-16 07:35:00
1:55 AM,33.4,18.5,54,30.03,10.0,NNW,9.2,-,N/A,,Clear,330,2014-01-16 07:55:00
2:15 AM,34.3,18.7,53,30.05,10.0,NW,6.9,-,N/A,,Clear,320,2014-01-16 08:15:00
2:35 AM,33.8,18.7,54,30.07,10.0,NNW,9.2,-,N/A,,Clear,330,2014-01-16 08:35:00
2:55 AM,32.9,18.5,55,30.07,10.0,NNW,5.8,-,N/A,,Clear,330,2014-01-16 08:55:00
3:15 AM,33.4,18.5,54,30.07,10.0,NW,5.8,-,N/A,,Clear,320,2014-01-16 09:15:00
3:35 AM,32.9,18.5,55,30.07,10.0,NW,4.6,-,N/A,,Clear,320,2014-01-16 09:35:00
3:55 AM,33.4,18.5,54,30.07,10.0,NW,5.8,-,N/A,,Clear,320,2014-01-16 09:55:00
4:15 AM,33.3,18.5,55,30.07,10.0,NW,9.2,-,N/A,,Clear,310,2014-01-16 10:15:00
4:35 AM,32.7,18.5,56,30.07,10.0,NW,9.2,-,N/A,,Clear,310,2014-01-16 10:35:00
4:55 AM,31.6,18.1,57,30.08,10.0,NW,9.2,-,N/A,,Clear,310,2014-01-16 10:55:00
5:15 AM,32.0,18.3,57,30.08,10.0,NW,8.1,-,N/A,,Clear,310,2014-01-16 11:15:00
5:35 AM,31.5,18.1,58,30.09,10.0,NW,6.9,-,N/A,,Clear,310,2014-01-16 11:35:00
5:55 AM,30.6,17.6,59,30.09,10.0,WNW,6.9,-,N/A,,Clear,300,2014-01-16 11:55:00
6:15 AM,28.6,17.6,64,30.10,10.0,West,6.9,-,N/A,,Clear,280,2014-01-16 12:15:00
6:35 AM,28.9,18.0,64,30.11,10.0,WNW,8.1,-,N/A,,Clear,290,2014-01-16 12:35:00
6:55 AM,27.3,16.9,65,30.12,10.0,WNW,6.9,-,N/A,,Clear,290,2014-01-16 12:55:00
7:15 AM,26.2,16.9,68,30.13,10.0,West,5.8,-,N/A,,Clear,280,2014-01-16 13:15:00
7:35 AM,28.2,17.8,65,30.14,10.0,WNW,9.2,-,N/A,,Clear,300,2014-01-16 13:35:00
7:55 AM,27.0,16.9,66,30.15,10.0,NW,8.1,-,N/A,,Clear,310,2014-01-16 13:55:00
8:15 AM,25.5,16.5,69,30.17,10.0,NW,6.9,-,N/A,,Clear,320,2014-01-16 14:15:00
8:35 AM,27.5,17.4,66,30.18,10.0,NNW,5.8,-,N/A,,Clear,330,2014-01-16 14:35:00
8:55 AM,30.2,18.5,62,30.19,10.0,NNW,4.6,-,N/A,,Clear,330,2014-01-16 14:55:00
9:15 AM,34.7,20.3,56,30.21,10.0,North,5.8,-,N/A,,Clear,360,2014-01-16 15:15:00
9:35 AM,40.3,19.6,44,30.23,10.0,North,17.3,21.9,N/A,,Clear,10,2014-01-16 15:35:00
9:55 AM,41.5,19.0,41,30.25,10.0,NNE,17.3,25.3,N/A,,Clear,20,2014-01-16 15:55:00
10:15 AM,41.9,19.6,41,30.27,10.0,NNE,18.4,25.3,N/A,,Clear,20,2014-01-16 16:15:00
10:35 AM,42.4,20.3,41,30.27,10.0,NE,20.7,29.9,N/A,,Clear,40,2014-01-16 16:35:00
10:55 AM,43.7,19.9,39,30.27,10.0,NNE,19.6,27.6,N/A,,Clear,30,2014-01-16 16:55:00
11:15 AM,43.9,19.4,38,30.27,10.0,NNE,20.7,29.9,N/A,,Clear,30,2014-01-16 17:15:00
11:35 AM,44.6,19.4,37,30.27,10.0,NNE,18.4,25.3,N/A,,Clear,20,2014-01-16 17:35:00
11:55 AM,45.7,19.2,35,30.27,10.0,North,17.3,21.9,N/A,,Clear,360,2014-01-16 17:55:00
12:15 PM,46.4,19.4,34,30.25,10.0,North,17.3,24.2,N/A,,Clear,10,2014-01-16 18:15:00
12:35 PM,46.9,18.1,32,30.23,10.0,North,16.1,25.3,N/A,,Clear,10,2014-01-16 18:35:00
12:55 PM,48.2,18.1,30,30.21,10.0,NNE,17.3,-,N/A,,Clear,20,2014-01-16 18:55:00
1:15 PM,48.7,18.0,29,30.20,10.0,North,13.8,21.9,N/A,,Clear,10,2014-01-16 19:15:00
1:35 PM,48.9,17.6,29,30.19,10.0,NNE,15.0,20.7,N/A,,Clear,30,2014-01-16 19:35:00
1:55 PM,49.3,16.7,27,30.19,10.0,North,16.1,25.3,N/A,,Clear,10,2014-01-16 19:55:00
2:35 PM,50.0,16.7,27,30.18,10.0,North,15.0,19.6,N/A,,Clear,10,2014-01-16 20:35:00
2:55 PM,50.0,16.5,26,30.19,10.0,North,13.8,20.7,N/A,,Clear,360,2014-01-16 20:55:00
3:15 PM,50.2,16.3,26,30.18,10.0,North,15.0,19.6,N/A,,Clear,360,2014-01-16 21:15:00
3:35 PM,50.0,16.2,26,30.18,10.0,North,15.0,21.9,N/A,,Clear,360,2014-01-16 21:35:00
3:55 PM,49.3,16.3,27,30.18,10.0,North,11.5,20.7,N/A,,Clear,360,2014-01-16 21:55:00
4:15 PM,49.6,16.5,27,30.18,10.0,North,13.8,-,N/A,,Clear,360,2014-01-16 22:15:00
4:35 PM,49.1,16.2,27,30.19,10.0,NNE,9.2,16.1,N/A,,Clear,20,2014-01-16 22:35:00
4:55 PM,48.2,16.3,28,30.20,10.0,North,10.4,16.1,N/A,,Clear,10,2014-01-16 22:55:00
5:15 PM,46.9,16.3,29,30.20,10.0,North,10.4,-,N/A,,Clear,10,2014-01-16 23:15:00
5:35 PM,45.1,16.7,32,30.20,10.0,North,6.9,-,N/A,,Clear,10,2014-01-16 23:35:00
5:55 PM,41.9,16.3,36,30.20,10.0,North,6.9,-,N/A,,Clear,10,2014-01-16 23:55:00
6:15 PM,38.7,15.8,39,30.21,10.0,North,4.6,-,N/A,,Clear,10,2014-01-17 00:15:00
6:35 PM,37.4,15.6,41,30.22,10.0,North,5.8,-,N/A,,Clear,360,2014-01-17 00:35:00
6:55 PM,37.2,15.8,42,30.22,10.0,North,6.9,-,N/A,,Clear,360,2014-01-17 00:55:00
7:15 PM,38.1,15.8,40,30.22,10.0,NNW,6.9,-,N/A,,Clear,340,2014-01-17 01:15:00
7:35 PM,35.1,15.1,44,30.23,10.0,NW,4.6,-,N/A,,Clear,310,2014-01-17 01:35:00
7:55 PM,37.0,16.0,42,30.24,10.0,NW,5.8,-,N/A,,Clear,320,2014-01-17 01:55:00
8:15 PM,36.3,15.8,43,30.24,10.0,NNW,5.8,-,N/A,,Clear,330,2014-01-17 02:15:00
8:35 PM,37.2,16.3,43,30.25,10.0,North,3.5,-,N/A,,Scattered Clouds,350,2014-01-17 02:35:00
8:55 PM,35.6,15.8,44,30.26,10.0,NNW,4.6,-,N/A,,Mostly Cloudy,330,2014-01-17 02:55:00
9:15 PM,34.9,15.8,46,30.27,10.0,NNW,3.5,-,N/A,,Overcast,330,2014-01-17 03:15:00
9:35 PM,33.8,15.8,48,30.27,10.0,NNW,5.8,-,N/A,,Overcast,340,2014-01-17 03:35:00
9:55 PM,33.6,15.8,48,30.28,10.0,WNW,5.8,-,N/A,,Mostly Cloudy,300,2014-01-17 03:55:00
10:15 PM,34.9,15.8,46,30.29,10.0,WNW,6.9,-,N/A,,Scattered Clouds,300,2014-01-17 04:15:00
10:35 PM,33.4,15.8,48,30.29,10.0,NW,6.9,-,N/A,,Scattered Clouds,320,2014-01-17 04:35:00
10:55 PM,35.2,15.4,44,30.29,10.0,NNW,8.1,-,N/A,,Clear,340,2014-01-17 04:55:00
11:15 PM,35.2,15.4,44,30.29,10.0,NW,5.8,-,N/A,,Scattered Clouds,320,2014-01-17 05:15:00
11:35 PM,34.0,15.8,47,30.29,10.0,NW,5.8,-,N/A,,Mostly Cloudy,310,2014-01-17 05:35:00
11:55 PM,34.9,16.3,47,30.29,10.0,NW,5.8,-,N/A,,Mostly Cloudy,310,2014-01-17 05:55:00